User: anonymous
Location: Fort Wayne
(41.1310°N, 85.1290°W)
Time: 09:03:47
(UTC-04:00)
Language:

Cosmos 2082 - Orbit

View from above orbital plane
View from above orbital plane
View from above satellite
View from above satellite

Ground track
Ground track

The orbit data is extracted from the following two-line orbital elements,

1 20624U 90046A   14292.76171343 -.00000051  00000-0 -17952-5 0   496
2 20624 071.0416 087.6588 0012928 062.2270 032.8471 14.14103930259869
Epoch (UTC): 19 October 2014 18:16:52
Eccentricity: 0.0012928
inclination: 71.0416°
perigee height: 836 km
apogee height: 855 km
right ascension of ascending node: 87.6588°
argument of perigee: 62.2270°
revolutions per day: 14.14103930
mean anomaly at epoch: 32.8471°
orbit number at epoch: 25986

The dashed part of the orbit path shows where the satellite is in the earth's shadow,  

DLR